Regional Weather Roundup
Issued by NWS Sioux Falls, SD

Home | Current Version | Previous Version | Text Only | Print | Product List | Glossary On
Versions: 1 2 3 4 5 6 7 8 9 10 11 12 13 14 15 16 17 18 19 20 21 22 23 24 25 26 27 28 29 30 31 32 33 34 35 36 37 38 39 40 41 42 43 44 45 46 47 48 49 50
000
ASUS43 KFSD 280502
RWRFSD

WEATHER ROUNDUP FOR SE SOUTH DAKOTA/SW MINNESOTA/NW IOWA
NATIONAL WEATHER SERVICE SIOUX FALLS SD
1200 AM CDT SAT MAY 28 2016

NOTE: "FAIR" INDICATES FEW OR NO CLOUDS BELOW 12,000 FEET WITH NO
SIGNIFICANT WEATHER AND OR OBSTRUCTIONS TO VISIBILITY.


SDZ038>040-050-052>070-280600-
SOUTHEAST SOUTH DAKOTA

CITY           SKY/WX    TMP DP  RH WIND       PRES   REMARKS
BROOKINGS      PTCLDY    61  57  87 NE5       29.77S
CHAMBERLAIN    NOT AVBL
HURON          CLOUDY    59  57  93 N5        29.77F
MADISON        FAIR      59  59 100 NE12      29.77F
MITCHELL       CLOUDY    62  60  93 NW9       29.76F
SIOUX FALLS    CLOUDY    61  57  87 NE6       29.74F
WINNER         FAIR      58  54  86 N5        29.81F
YANKTON        CLOUDY    66  59  77 N9        29.71F
$$

MNZ071-072-080-081-089-090-097-098-280600-
SOUTHWEST MINNESOTA

CITY           SKY/WX    TMP DP  RH WIND       PRES   REMARKS
FAIRMONT       CLOUDY    66  61  82 E7        29.77S
JACKSON        MOCLDY    66  59  77 E9        29.77S
LUVERNE        PTCLDY    64  54  68 E6        29.75F
MARSHALL       PTCLDY    64  60  87 NE5       29.77R
MONTEVIDEO     CLOUDY    63  57  82 SE8       29.80R
PIPESTONE      MOCLDY    64  57  77 CALM      29.76F
REDWOOD FALLS  MOCLDY    62  60  93 NE3       29.76R
TRACY          CLOUDY    64  59  86 CALM      29.77R
WINDOM         CLOUDY    64  61  88 E7        29.77S
WORTHINGTON    MOCLDY    64  60  87 E8        29.77S
$$

IAZ001>003-012>014-020>022-031-032-NEZ013-014-SDZ071-280600-
NORTHWEST IOWA

CITY           SKY/WX    TMP DP  RH WIND       PRES   REMARKS
CHEROKEE       LGT RAIN  67  64  89 SW3       29.74S
ESTHERVILLE    CLOUDY    66  61  84 E9        29.76R
SIOUX CITY     TSTM      64  61  90 NW5       29.75R FOG
SPENCER        CLOUDY    66  59  78 E8        29.75R
STORM LAKE     CLOUDY    66  63  88 S12       29.76S
$$

ABBREVIATIONS USED IN REMARKS
   TC - TEMPERATURE IN CELSIUS
  WCI - WIND CHILL INDEX
   HX - HEAT INDEX
  VSB - VISIBILITY




USA.gov is the U.S. government's official web portal to all federal, state and local government web resources and services.